timestamp,wind_dir_avg,wind_spd_avg,wind_spd_max_dir,wind_spd_gust,battery_voltage,lat,long
2024-04-24 00:04:00+00:00,315.0,0.01,283.0,0.0,12.57,47.59359,-54.27349
2024-04-24 00:14:00+00:00,315.0,0.01,283.0,0.0,12.25,47.59359,-54.27349
2024-04-24 00:24:00+00:00,315.0,0.01,283.0,0.0,12.25,47.59359,-54.27349
2024-04-24 00:34:00+00:00,315.0,0.01,283.0,0.0,12.25,47.59359,-54.27349
2024-04-24 00:44:00+00:00,315.0,0.01,283.0,0.0,12.25,47.59359,-54.27349
2024-04-24 00:54:00+00:00,315.0,0.01,283.0,0.0,12.25,47.59359,-54.27349
2024-04-24 01:04:00+00:00,315.0,0.01,283.0,0.0,12.25,47.59359,-54.27349
2024-04-24 01:14:00+00:00,315.0,0.01,283.0,0.0,12.17,47.59359,-54.27349
2024-04-24 01:24:00+00:00,315.0,0.01,283.0,0.0,12.17,47.59359,-54.27349
2024-04-24 01:34:00+00:00,315.0,0.01,283.0,0.0,12.17,47.59359,-54.27349
2024-04-24 01:44:00+00:00,315.0,0.01,283.0,0.0,12.17,47.59359,-54.27349
2024-04-24 01:54:00+00:00,315.0,0.01,283.0,0.0,12.17,47.59359,-54.27349
2024-04-24 02:04:00+00:00,315.0,0.01,283.0,0.0,12.17,47.59359,-54.27349
2024-04-24 02:14:00+00:00,315.0,0.01,283.0,0.0,12.17,47.59359,-54.27349
2024-04-24 02:24:00+00:00,315.0,0.01,283.0,0.0,12.17,47.59359,-54.27349
2024-04-24 02:34:00+00:00,315.0,0.01,283.0,0.0,12.17,47.59359,-54.27349
2024-04-24 02:44:00+00:00,315.0,0.01,283.0,0.0,12.17,47.59359,-54.27349
2024-04-24 02:54:00+00:00,315.0,0.01,283.0,0.0,12.17,47.59359,-54.27349
2024-04-24 03:04:00+00:00,315.0,0.01,283.0,0.0,12.17,47.59359,-54.27349
2024-04-24 03:14:00+00:00,315.0,0.01,283.0,0.0,12.17,47.59359,-54.27349
2024-04-24 03:24:00+00:00,315.0,0.01,283.0,0.0,12.17,47.59359,-54.27349
2024-04-24 03:34:00+00:00,315.0,0.01,283.0,0.0,12.17,47.59359,-54.27349
2024-04-24 03:44:00+00:00,315.0,0.01,283.0,0.0,12.17,47.59359,-54.27349
2024-04-24 03:54:00+00:00,315.0,0.01,283.0,0.0,12.17,47.59359,-54.27349
2024-04-24 04:04:00+00:00,315.0,0.01,283.0,0.0,12.17,47.59359,-54.27349
2024-04-24 04:14:00+00:00,315.0,0.01,283.0,0.0,12.17,47.59359,-54.27349
2024-04-24 04:24:00+00:00,315.0,0.01,283.0,0.0,12.17,47.59359,-54.27349
2024-04-24 04:34:00+00:00,315.0,0.01,283.0,0.0,12.17,47.59359,-54.27349
2024-04-24 04:44:00+00:00,315.0,0.01,283.0,0.0,12.17,47.59359,-54.27349
2024-04-24 04:54:00+00:00,315.0,0.01,283.0,0.0,12.17,47.59359,-54.27349
2024-04-24 05:04:00+00:00,315.0,0.01,283.0,0.0,12.17,47.59359,-54.27349
2024-04-24 05:14:00+00:00,315.0,0.01,283.0,0.0,12.09,47.59359,-54.27349
2024-04-24 05:24:00+00:00,315.0,0.01,283.0,0.0,12.09,47.59359,-54.27349
2024-04-24 05:34:00+00:00,315.0,0.01,283.0,0.0,12.09,47.59359,-54.27349
2024-04-24 05:44:00+00:00,315.0,0.01,283.0,0.0,12.09,47.59359,-54.27349
2024-04-24 05:54:00+00:00,315.0,0.01,283.0,0.0,12.09,47.59359,-54.27349
2024-04-24 06:04:00+00:00,315.0,0.01,283.0,0.0,12.09,47.59359,-54.27349
2024-04-24 06:14:01+00:00,315.0,0.01,283.0,0.0,12.09,47.59359,-54.27349
2024-04-24 06:24:01+00:00,315.0,0.01,283.0,0.0,12.09,47.59359,-54.27349
2024-04-24 06:34:01+00:00,315.0,0.01,283.0,0.0,12.09,47.59359,-54.27349
2024-04-24 06:44:01+00:00,315.0,0.01,283.0,0.0,12.09,47.59359,-54.27349
2024-04-24 06:54:01+00:00,315.0,0.01,283.0,0.0,12.09,47.59359,-54.27349
2024-04-24 07:04:01+00:00,315.0,0.01,283.0,0.0,12.09,47.59359,-54.27349
2024-04-24 07:14:00+00:00,315.0,0.01,283.0,0.0,12.01,47.59359,-54.27349
2024-04-24 07:24:00+00:00,315.0,0.01,283.0,0.0,12.01,47.59359,-54.27349
2024-04-24 07:34:00+00:00,315.0,0.01,283.0,0.0,12.01,47.59359,-54.27349
2024-04-24 07:44:00+00:00,315.0,0.01,283.0,0.0,12.01,47.59359,-54.27349
2024-04-24 07:54:00+00:00,315.0,0.01,283.0,0.0,12.01,47.59359,-54.27349
2024-04-24 08:04:00+00:00,315.0,0.01,283.0,0.0,12.01,47.59359,-54.27349
2024-04-24 08:14:01+00:00,315.0,0.01,283.0,0.0,12.01,47.59359,-54.27349
2024-04-24 08:24:01+00:00,315.0,0.01,283.0,0.0,12.01,47.59359,-54.27349
2024-04-24 08:34:01+00:00,315.0,0.01,283.0,0.0,12.01,47.59359,-54.27349
2024-04-24 08:44:01+00:00,315.0,0.01,283.0,0.0,12.01,47.59359,-54.27349
2024-04-24 08:54:01+00:00,315.0,0.01,283.0,0.0,12.01,47.59359,-54.27349
2024-04-24 09:04:01+00:00,315.0,0.01,283.0,0.0,12.01,47.59359,-54.27349
2024-04-24 09:14:00+00:00,315.0,0.01,283.0,0.0,12.01,47.59359,-54.27349
2024-04-24 09:24:00+00:00,315.0,0.01,283.0,0.0,12.01,47.59359,-54.27349
2024-04-24 09:34:00+00:00,315.0,0.01,283.0,0.0,12.01,47.59359,-54.27349
2024-04-24 09:44:00+00:00,315.0,0.01,283.0,0.0,12.01,47.59359,-54.27349
2024-04-24 09:54:00+00:00,315.0,0.01,283.0,0.0,12.01,47.59359,-54.27349
2024-04-24 10:04:00+00:00,315.0,0.01,283.0,0.0,12.01,47.59359,-54.27349
2024-04-24 10:14:00+00:00,315.0,0.01,283.0,0.0,12.09,47.59359,-54.27349
2024-04-24 10:24:00+00:00,315.0,0.01,283.0,0.0,12.09,47.59359,-54.27349
2024-04-24 10:34:00+00:00,315.0,0.01,283.0,0.0,12.09,47.59359,-54.27349
2024-04-24 10:44:00+00:00,315.0,0.01,283.0,0.0,12.09,47.59359,-54.27349
2024-04-24 10:54:00+00:00,315.0,0.01,283.0,0.0,12.09,47.59359,-54.27349
2024-04-24 11:04:00+00:00,315.0,0.01,283.0,0.0,12.09,47.59359,-54.27349
2024-04-24 11:14:00+00:00,315.0,0.01,283.0,0.0,12.65,47.59359,-54.27349
2024-04-24 11:24:00+00:00,315.0,0.01,283.0,0.0,12.65,47.59359,-54.27349
2024-04-24 11:34:00+00:00,315.0,0.01,283.0,0.0,12.65,47.59359,-54.27349
2024-04-24 11:44:00+00:00,315.0,0.01,283.0,0.0,12.65,47.59359,-54.27349
2024-04-24 11:54:00+00:00,315.0,0.01,283.0,0.0,12.65,47.59359,-54.27349
2024-04-24 12:04:00+00:00,315.0,0.01,283.0,0.0,12.65,47.59359,-54.27349
2024-04-24 12:14:00+00:00,315.0,0.01,283.0,0.0,13.13,47.59359,-54.27349
2024-04-24 12:24:00+00:00,315.0,0.01,283.0,0.0,13.13,47.59359,-54.27349
2024-04-24 12:34:00+00:00,315.0,0.01,283.0,0.0,13.13,47.59359,-54.27349
2024-04-24 12:44:00+00:00,315.0,0.01,283.0,0.0,13.13,47.59359,-54.27349
2024-04-24 12:54:00+00:00,315.0,0.01,283.0,0.0,13.13,47.59359,-54.27349
2024-04-24 13:04:00+00:00,315.0,0.01,283.0,0.0,13.13,47.59359,-54.27349
2024-04-24 13:14:00+00:00,315.0,0.01,283.0,0.0,13.05,47.59359,-54.27349
2024-04-24 13:24:00+00:00,315.0,0.01,283.0,0.0,13.05,47.59359,-54.27349
2024-04-24 13:34:00+00:00,315.0,0.01,283.0,0.0,13.05,47.59359,-54.27349
2024-04-24 13:44:00+00:00,315.0,0.01,283.0,0.0,13.05,47.59359,-54.27349
2024-04-24 13:54:00+00:00,315.0,0.01,283.0,0.0,13.05,47.59359,-54.27349
2024-04-24 14:04:00+00:00,315.0,0.01,283.0,0.0,13.05,47.59359,-54.27349
2024-04-24 14:14:00+00:00,315.0,0.01,283.0,0.0,13.44,47.59359,-54.27349
2024-04-24 14:24:00+00:00,315.0,0.01,283.0,0.0,13.44,47.59359,-54.27349
2024-04-24 14:34:00+00:00,315.0,0.01,283.0,0.0,13.44,47.59359,-54.27349
2024-04-24 14:44:00+00:00,315.0,0.01,283.0,0.0,13.44,47.59359,-54.27349
2024-04-24 14:54:00+00:00,315.0,0.01,283.0,0.0,13.44,47.59359,-54.27349
2024-04-24 15:04:00+00:00,315.0,0.01,283.0,0.0,13.44,47.59359,-54.27349
2024-04-24 15:14:00+00:00,315.0,0.01,283.0,0.0,13.37,47.59359,-54.27349
2024-04-24 15:24:00+00:00,315.0,0.01,283.0,0.0,13.37,47.59359,-54.27349
2024-04-24 15:34:00+00:00,315.0,0.01,283.0,0.0,13.37,47.59359,-54.27349
2024-04-24 15:44:00+00:00,315.0,0.01,283.0,0.0,13.37,47.59359,-54.27349
2024-04-24 15:54:00+00:00,315.0,0.01,283.0,0.0,13.37,47.59359,-54.27349
2024-04-24 16:04:00+00:00,315.0,0.01,283.0,0.0,13.37,47.59359,-54.27349
2024-04-24 16:14:00+00:00,315.0,0.01,283.0,0.0,13.29,47.59359,-54.27349
2024-04-24 16:24:00+00:00,315.0,0.01,283.0,0.0,13.29,47.59359,-54.27349
2024-04-24 16:34:00+00:00,315.0,0.01,283.0,0.0,13.29,47.59359,-54.27349
2024-04-24 16:44:00+00:00,315.0,0.01,283.0,0.0,13.29,47.59359,-54.27349
2024-04-24 16:54:00+00:00,315.0,0.01,283.0,0.0,13.29,47.59359,-54.27349
2024-04-24 17:04:00+00:00,315.0,0.01,283.0,0.0,13.29,47.59359,-54.27349
2024-04-24 17:14:00+00:00,315.0,0.01,283.0,0.0,13.29,47.59359,-54.27349
2024-04-24 17:24:00+00:00,315.0,0.01,283.0,0.0,13.29,47.59359,-54.27349
2024-04-24 17:34:00+00:00,315.0,0.01,283.0,0.0,13.29,47.59359,-54.27349
2024-04-24 17:44:00+00:00,315.0,0.01,283.0,0.0,13.29,47.59359,-54.27349
2024-04-24 17:54:00+00:00,315.0,0.01,283.0,0.0,13.29,47.59359,-54.27349
2024-04-24 18:04:00+00:00,315.0,0.01,283.0,0.0,13.29,47.59359,-54.27349
2024-04-24 18:14:00+00:00,315.0,0.01,283.0,0.0,13.53,47.59359,-54.27349
2024-04-24 18:24:00+00:00,76.0,4.23,145.0,6.73,13.53,47.59359,-54.27349
2024-04-24 18:34:00+00:00,26.0,7.13,25.0,8.68,13.53,47.59359,-54.27349
2024-04-24 18:44:00+00:00,315.0,0.01,25.0,0.0,13.53,47.59359,-54.27349
2024-04-24 18:54:00+00:00,315.0,0.01,41.0,0.0,13.53,47.59359,-54.27349
2024-04-24 19:04:00+00:00,315.0,0.01,41.0,0.0,13.53,47.59359,-54.27349
2024-04-24 19:14:00+00:00,315.0,0.01,33.0,0.0,12.97,47.59359,-54.27349
2024-04-24 19:24:00+00:00,315.0,0.01,33.0,0.0,12.97,47.59359,-54.27349
2024-04-24 19:34:00+00:00,315.0,0.01,35.0,0.0,12.97,47.59359,-54.27349
2024-04-24 19:44:00+00:00,315.0,0.01,35.0,0.0,12.97,47.59359,-54.27349
2024-04-24 19:54:00+00:00,315.0,0.01,35.0,0.0,12.97,47.59359,-54.27349
2024-04-24 20:04:00+00:00,315.0,0.01,35.0,0.0,12.97,47.59359,-54.27349
2024-04-24 20:14:00+00:00,315.0,0.01,35.0,0.0,12.81,47.59359,-54.27349
2024-04-24 20:24:00+00:00,315.0,0.01,35.0,0.0,12.81,47.59359,-54.27349
2024-04-24 20:34:00+00:00,315.0,0.01,35.0,0.0,12.81,47.59359,-54.27349
2024-04-24 20:44:00+00:00,315.0,0.01,35.0,0.0,12.81,47.59359,-54.27349
2024-04-24 20:54:00+00:00,315.0,0.01,35.0,0.0,12.81,47.59359,-54.27349
2024-04-24 21:04:00+00:00,315.0,0.01,35.0,0.0,12.81,47.59359,-54.27349
2024-04-24 21:14:00+00:00,315.0,0.01,35.0,0.0,12.41,47.59359,-54.27349
2024-04-24 21:24:00+00:00,315.0,0.01,35.0,0.0,12.41,47.59359,-54.27349
2024-04-24 21:34:00+00:00,315.0,0.01,35.0,0.0,12.41,47.59359,-54.27349
2024-04-24 21:44:00+00:00,315.0,0.01,35.0,0.0,12.41,47.59359,-54.27349
2024-04-24 21:54:00+00:00,315.0,0.01,35.0,0.0,12.41,47.59359,-54.27349
2024-04-24 22:04:00+00:00,315.0,0.01,35.0,0.0,12.41,47.59359,-54.27349
2024-04-24 22:14:00+00:00,315.0,0.01,35.0,0.0,12.25,47.59359,-54.27349
2024-04-24 22:24:00+00:00,315.0,0.01,35.0,0.0,12.25,47.59359,-54.27349
2024-04-24 22:34:00+00:00,315.0,0.01,35.0,0.0,12.25,47.59359,-54.27349
2024-04-24 22:44:00+00:00,315.0,0.01,35.0,0.0,12.25,47.59359,-54.27349
2024-04-24 22:54:00+00:00,315.0,0.01,35.0,0.0,12.25,47.59359,-54.27349
2024-04-24 23:04:00+00:00,315.0,0.01,35.0,0.0,12.25,47.59359,-54.27349
2024-04-24 23:14:00+00:00,315.0,0.01,35.0,0.0,12.25,47.59359,-54.27349
2024-04-24 23:24:00+00:00,315.0,0.01,35.0,0.0,12.25,47.59359,-54.27349
2024-04-24 23:34:00+00:00,315.0,0.01,35.0,0.0,12.25,47.59359,-54.27349
2024-04-24 23:44:00+00:00,315.0,0.01,35.0,0.0,12.25,47.59359,-54.27349
2024-04-24 23:54:00+00:00,315.0,0.01,35.0,0.0,12.25,47.59359,-54.27349
